#datetime,building,power
2021-12-23T00:00:00,sdl,18.71
2021-12-23T00:01:00,sdl,14.54
2021-12-23T00:02:00,sdl,14.48
2021-12-23T00:03:00,sdl,14.37
2021-12-23T00:04:00,sdl,12.02
2021-12-23T00:05:00,sdl,12.13
2021-12-23T00:06:00,sdl,12.07
2021-12-23T00:07:00,sdl,12.14
2021-12-23T00:08:00,sdl,13.46
2021-12-23T00:09:00,sdl,12.44
2021-12-23T00:10:00,sdl,12.30
2021-12-23T00:11:00,sdl,12.25
2021-12-23T00:12:00,sdl,12.22
2021-12-23T00:13:00,sdl,12.59
2021-12-23T00:14:00,sdl,12.16
2021-12-23T00:15:00,sdl,12.10
2021-12-23T00:16:00,sdl,14.33
2021-12-23T00:17:00,sdl,14.33
2021-12-23T00:18:00,sdl,14.30
2021-12-23T00:19:00,sdl,14.28
2021-12-23T00:20:00,sdl,14.44
2021-12-23T00:21:00,sdl,14.55
2021-12-23T00:22:00,sdl,14.54
2021-12-23T00:23:00,sdl,14.60
2021-12-23T00:24:00,sdl,15.37
2021-12-23T00:25:00,sdl,16.29
2021-12-23T00:26:00,sdl,14.89
2021-12-23T00:27:00,sdl,14.79
2021-12-23T00:28:00,sdl,12.55
2021-12-23T00:29:00,sdl,12.44
2021-12-23T00:30:00,sdl,12.36
2021-12-23T00:31:00,sdl,12.27
2021-12-23T00:32:00,sdl,12.31
2021-12-23T00:33:00,sdl,12.30
2021-12-23T00:34:00,sdl,12.65
2021-12-23T00:35:00,sdl,16.73
2021-12-23T00:36:00,sdl,16.32
2021-12-23T00:37:00,sdl,16.57
2021-12-23T00:38:00,sdl,16.50
2021-12-23T00:39:00,sdl,16.48
2021-12-23T00:40:00,sdl,18.03
2021-12-23T00:41:00,sdl,17.92
2021-12-23T00:42:00,sdl,16.46
2021-12-23T00:43:00,sdl,16.48
2021-12-23T00:44:00,sdl,16.42
2021-12-23T00:45:00,sdl,16.56
2021-12-23T00:46:00,sdl,12.46
2021-12-23T00:47:00,sdl,12.48
2021-12-23T00:48:00,sdl,13.66
2021-12-23T00:49:00,sdl,14.75
2021-12-23T00:50:00,sdl,14.80
2021-12-23T00:51:00,sdl,14.79
2021-12-23T00:52:00,sdl,14.87
2021-12-23T00:53:00,sdl,14.82
2021-12-23T00:54:00,sdl,14.84
2021-12-23T00:55:00,sdl,14.66
2021-12-23T00:56:00,sdl,14.69
2021-12-23T00:57:00,sdl,16.58
2021-12-23T00:58:00,sdl,15.12
2021-12-23T00:59:00,sdl,15.62
2021-12-23T01:00:00,sdl,15.09
2021-12-23T01:01:00,sdl,15.07
2021-12-23T01:02:00,sdl,15.41
2021-12-23T01:03:00,sdl,14.96
2021-12-23T01:04:00,sdl,15.18
2021-12-23T01:05:00,sdl,12.89
2021-12-23T01:06:00,sdl,12.90
2021-12-23T01:07:00,sdl,12.87
2021-12-23T01:08:00,sdl,12.80
2021-12-23T01:09:00,sdl,12.70
2021-12-23T01:10:00,sdl,12.59
2021-12-23T01:11:00,sdl,12.56
2021-12-23T01:12:00,sdl,14.02
2021-12-23T01:13:00,sdl,12.64
2021-12-23T01:14:00,sdl,12.53
2021-12-23T01:15:00,sdl,12.60
2021-12-23T01:16:00,sdl,12.62
2021-12-23T01:17:00,sdl,12.86
2021-12-23T01:18:00,sdl,12.66
2021-12-23T01:19:00,sdl,12.63
2021-12-23T01:20:00,sdl,12.65
2021-12-23T01:21:00,sdl,12.57
2021-12-23T01:22:00,sdl,12.49
2021-12-23T01:23:00,sdl,12.11
2021-12-23T01:24:00,sdl,12.11
2021-12-23T01:25:00,sdl,12.09
2021-12-23T01:26:00,sdl,16.18
2021-12-23T01:27:00,sdl,18.74
2021-12-23T01:28:00,sdl,16.30
2021-12-23T01:29:00,sdl,16.71
2021-12-23T01:30:00,sdl,16.69
2021-12-23T01:31:00,sdl,18.65
2021-12-23T01:32:00,sdl,18.55
2021-12-23T01:33:00,sdl,18.58
2021-12-23T01:34:00,sdl,18.55
2021-12-23T01:35:00,sdl,18.48
2021-12-23T01:36:00,sdl,19.04
2021-12-23T01:37:00,sdl,14.42
2021-12-23T01:38:00,sdl,14.37
2021-12-23T01:39:00,sdl,14.38
2021-12-23T01:40:00,sdl,14.38
2021-12-23T01:41:00,sdl,15.87
2021-12-23T01:42:00,sdl,12.18
2021-12-23T01:43:00,sdl,12.21
2021-12-23T01:44:00,sdl,12.23
2021-12-23T01:45:00,sdl,12.37
2021-12-23T01:46:00,sdl,12.36
2021-12-23T01:47:00,sdl,11.27
2021-12-23T01:48:00,sdl,11.26
2021-12-23T01:49:00,sdl,12.23
2021-12-23T01:50:00,sdl,12.24
2021-12-23T01:51:00,sdl,12.22
2021-12-23T01:52:00,sdl,12.29
2021-12-23T01:53:00,sdl,12.23
2021-12-23T01:54:00,sdl,12.97
2021-12-23T01:55:00,sdl,15.99
2021-12-23T01:56:00,sdl,14.93
2021-12-23T01:57:00,sdl,15.04
2021-12-23T01:58:00,sdl,14.97
2021-12-23T01:59:00,sdl,15.33
2021-12-23T02:00:00,sdl,14.54
2021-12-23T02:01:00,sdl,14.55
2021-12-23T02:02:00,sdl,14.54
2021-12-23T02:03:00,sdl,14.50
2021-12-23T02:04:00,sdl,14.48
2021-12-23T02:05:00,sdl,14.50
2021-12-23T02:06:00,sdl,14.48
2021-12-23T02:07:00,sdl,15.16
2021-12-23T02:08:00,sdl,12.33
2021-12-23T02:09:00,sdl,13.74
2021-12-23T02:10:00,sdl,12.39
2021-12-23T02:11:00,sdl,12.38
2021-12-23T02:12:00,sdl,12.88
2021-12-23T02:13:00,sdl,16.39
2021-12-23T02:14:00,sdl,17.69
2021-12-23T02:15:00,sdl,16.48
2021-12-23T02:16:00,sdl,16.41
2021-12-23T02:17:00,sdl,16.38
2021-12-23T02:18:00,sdl,16.85
2021-12-23T02:19:00,sdl,17.47
2021-12-23T02:20:00,sdl,16.78
2021-12-23T02:21:00,sdl,16.82
2021-12-23T02:22:00,sdl,18.17
2021-12-23T02:23:00,sdl,18.20
2021-12-23T02:24:00,sdl,12.70
2021-12-23T02:25:00,sdl,12.86
2021-12-23T02:26:00,sdl,13.17
2021-12-23T02:27:00,sdl,13.25
2021-12-23T02:28:00,sdl,12.83
2021-12-23T02:29:00,sdl,12.69
2021-12-23T02:30:00,sdl,15.08
2021-12-23T02:31:00,sdl,15.65
2021-12-23T02:32:00,sdl,14.91
2021-12-23T02:33:00,sdl,15.02
2021-12-23T02:34:00,sdl,14.99
2021-12-23T02:35:00,sdl,14.88
2021-12-23T02:36:00,sdl,16.30
2021-12-23T02:37:00,sdl,16.24
2021-12-23T02:38:00,sdl,14.92
2021-12-23T02:39:00,sdl,15.32
2021-12-23T02:40:00,sdl,14.80
2021-12-23T02:41:00,sdl,14.82
2021-12-23T02:42:00,sdl,14.82
2021-12-23T02:43:00,sdl,14.76
2021-12-23T02:44:00,sdl,14.75
2021-12-23T02:45:00,sdl,14.33
2021-12-23T02:46:00,sdl,12.41
2021-12-23T02:47:00,sdl,12.28
2021-12-23T02:48:00,sdl,12.65
2021-12-23T02:49:00,sdl,12.86
2021-12-23T02:50:00,sdl,12.18
2021-12-23T02:51:00,sdl,13.56
2021-12-23T02:52:00,sdl,12.79
2021-12-23T02:53:00,sdl,12.45
2021-12-23T02:54:00,sdl,12.63
2021-12-23T02:55:00,sdl,12.50
2021-12-23T02:56:00,sdl,12.49
2021-12-23T02:57:00,sdl,12.12
2021-12-23T02:58:00,sdl,12.33
2021-12-23T02:59:00,sdl,12.22
2021-12-23T03:00:00,sdl,12.34
2021-12-23T03:01:00,sdl,12.38
2021-12-23T03:02:00,sdl,12.28
2021-12-23T03:03:00,sdl,12.88
2021-12-23T03:04:00,sdl,13.62
2021-12-23T03:05:00,sdl,13.68
2021-12-23T03:06:00,sdl,12.30
2021-12-23T03:07:00,sdl,12.25
2021-12-23T03:08:00,sdl,12.34
2021-12-23T03:09:00,sdl,12.30
2021-12-23T03:10:00,sdl,12.36
2021-12-23T03:11:00,sdl,14.56
2021-12-23T03:12:00,sdl,20.41
2021-12-23T03:13:00,sdl,18.71
2021-12-23T03:14:00,sdl,18.73
2021-12-23T03:15:00,sdl,18.70
2021-12-23T03:16:00,sdl,18.59
2021-12-23T03:17:00,sdl,18.66
2021-12-23T03:18:00,sdl,19.95
2021-12-23T03:19:00,sdl,18.63
2021-12-23T03:20:00,sdl,18.73
2021-12-23T03:21:00,sdl,18.57
2021-12-23T03:22:00,sdl,18.87
2021-12-23T03:23:00,sdl,16.67
2021-12-23T03:24:00,sdl,16.22
2021-12-23T03:25:00,sdl,16.22
2021-12-23T03:26:00,sdl,16.28
2021-12-23T03:27:00,sdl,16.25
2021-12-23T03:28:00,sdl,12.24
2021-12-23T03:29:00,sdl,12.19
2021-12-23T03:30:00,sdl,13.57
2021-12-23T03:31:00,sdl,13.48
2021-12-23T03:32:00,sdl,13.51
2021-12-23T03:33:00,sdl,12.13
2021-12-23T03:34:00,sdl,12.15
2021-12-23T03:35:00,sdl,14.34
2021-12-23T03:36:00,sdl,14.33
2021-12-23T03:37:00,sdl,14.95
2021-12-23T03:38:00,sdl,15.00
2021-12-23T03:39:00,sdl,14.93
2021-12-23T03:40:00,sdl,14.95
2021-12-23T03:41:00,sdl,14.97
2021-12-23T03:42:00,sdl,14.92
2021-12-23T03:43:00,sdl,17.64
2021-12-23T03:44:00,sdl,14.65
2021-12-23T03:45:00,sdl,17.15
2021-12-23T03:46:00,sdl,15.84
2021-12-23T03:47:00,sdl,15.96
2021-12-23T03:48:00,sdl,13.76
2021-12-23T03:49:00,sdl,14.88
2021-12-23T03:50:00,sdl,14.08
2021-12-23T03:51:00,sdl,12.89
2021-12-23T03:52:00,sdl,12.77
2021-12-23T03:53:00,sdl,12.80
2021-12-23T03:54:00,sdl,12.98
2021-12-23T03:55:00,sdl,12.83
2021-12-23T03:56:00,sdl,12.83
2021-12-23T03:57:00,sdl,14.16
2021-12-23T03:58:00,sdl,14.12
2021-12-23T03:59:00,sdl,16.89
2021-12-23T04:00:00,sdl,16.98
2021-12-23T04:01:00,sdl,16.92
2021-12-23T04:02:00,sdl,16.91
2021-12-23T04:03:00,sdl,16.76
2021-12-23T04:04:00,sdl,16.86
2021-12-23T04:05:00,sdl,16.44
2021-12-23T04:06:00,sdl,16.47
2021-12-23T04:07:00,sdl,16.52
2021-12-23T04:08:00,sdl,16.50
2021-12-23T04:09:00,sdl,16.53
2021-12-23T04:10:00,sdl,18.66
2021-12-23T04:11:00,sdl,15.84
2021-12-23T04:12:00,sdl,14.46
2021-12-23T04:13:00,sdl,14.45
2021-12-23T04:14:00,sdl,14.99
2021-12-23T04:15:00,sdl,14.52
2021-12-23T04:16:00,sdl,15.70
2021-12-23T04:17:00,sdl,14.80
2021-12-23T04:18:00,sdl,14.87
2021-12-23T04:19:00,sdl,14.53
2021-12-23T04:20:00,sdl,14.45
2021-12-23T04:21:00,sdl,14.45
2021-12-23T04:22:00,sdl,14.44
2021-12-23T04:23:00,sdl,15.88
2021-12-23T04:24:00,sdl,15.08
2021-12-23T04:25:00,sdl,14.95
2021-12-23T04:26:00,sdl,14.55
2021-12-23T04:27:00,sdl,12.33
2021-12-23T04:28:00,sdl,12.53
2021-12-23T04:29:00,sdl,12.29
2021-12-23T04:30:00,sdl,12.32
2021-12-23T04:31:00,sdl,12.18
2021-12-23T04:32:00,sdl,11.07
2021-12-23T04:33:00,sdl,12.07
2021-12-23T04:34:00,sdl,12.09
2021-12-23T04:35:00,sdl,13.47
2021-12-23T04:36:00,sdl,13.41
2021-12-23T04:37:00,sdl,12.01
2021-12-23T04:38:00,sdl,12.06
2021-12-23T04:39:00,sdl,12.07
2021-12-23T04:40:00,sdl,12.18
2021-12-23T04:41:00,sdl,12.16
2021-12-23T04:42:00,sdl,12.18
2021-12-23T04:43:00,sdl,12.27
2021-12-23T04:44:00,sdl,12.55
2021-12-23T04:45:00,sdl,12.58
2021-12-23T04:46:00,sdl,13.63
2021-12-23T04:47:00,sdl,13.58
2021-12-23T04:48:00,sdl,12.20
2021-12-23T04:49:00,sdl,13.23
2021-12-23T04:50:00,sdl,12.08
2021-12-23T04:51:00,sdl,18.96
2021-12-23T04:52:00,sdl,18.44
2021-12-23T04:53:00,sdl,18.78
2021-12-23T04:54:00,sdl,18.48
2021-12-23T04:55:00,sdl,18.37
2021-12-23T04:56:00,sdl,18.50
2021-12-23T04:57:00,sdl,19.83
2021-12-23T04:58:00,sdl,20.27
2021-12-23T04:59:00,sdl,19.32
2021-12-23T05:00:00,sdl,18.82
2021-12-23T05:01:00,sdl,16.95
2021-12-23T05:02:00,sdl,16.49
2021-12-23T05:03:00,sdl,16.50
2021-12-23T05:04:00,sdl,16.42
2021-12-23T05:05:00,sdl,12.37
2021-12-23T05:06:00,sdl,12.15
2021-12-23T05:07:00,sdl,13.35
2021-12-23T05:08:00,sdl,12.18
2021-12-23T05:09:00,sdl,13.63
2021-12-23T05:10:00,sdl,12.76
2021-12-23T05:11:00,sdl,12.67
2021-12-23T05:12:00,sdl,12.57
2021-12-23T05:13:00,sdl,12.15
2021-12-23T05:14:00,sdl,14.35
2021-12-23T05:15:00,sdl,14.38
2021-12-23T05:16:00,sdl,14.46
2021-12-23T05:17:00,sdl,14.40
2021-12-23T05:18:00,sdl,14.39
2021-12-23T05:19:00,sdl,14.47
2021-12-23T05:20:00,sdl,15.93
2021-12-23T05:21:00,sdl,16.41
2021-12-23T05:22:00,sdl,15.10
2021-12-23T05:23:00,sdl,15.12
2021-12-23T05:24:00,sdl,15.06
2021-12-23T05:25:00,sdl,15.00
2021-12-23T05:26:00,sdl,15.00
2021-12-23T05:27:00,sdl,14.95
2021-12-23T05:28:00,sdl,15.53
2021-12-23T05:29:00,sdl,12.76
2021-12-23T05:30:00,sdl,12.74
2021-12-23T05:31:00,sdl,14.54
2021-12-23T05:32:00,sdl,14.69
2021-12-23T05:33:00,sdl,12.76
2021-12-23T05:34:00,sdl,12.80
2021-12-23T05:35:00,sdl,12.84
2021-12-23T05:36:00,sdl,12.81
2021-12-23T05:37:00,sdl,12.82
2021-12-23T05:38:00,sdl,12.82
2021-12-23T05:39:00,sdl,12.97
2021-12-23T05:40:00,sdl,12.85
2021-12-23T05:41:00,sdl,12.42
2021-12-23T05:42:00,sdl,13.82
2021-12-23T05:43:00,sdl,17.89
2021-12-23T05:44:00,sdl,16.58
2021-12-23T05:45:00,sdl,16.53
2021-12-23T05:46:00,sdl,16.65
2021-12-23T05:47:00,sdl,16.76
2021-12-23T05:48:00,sdl,16.81
2021-12-23T05:49:00,sdl,18.18
2021-12-23T05:50:00,sdl,16.39
2021-12-23T05:51:00,sdl,16.28
2021-12-23T05:52:00,sdl,18.68
2021-12-23T05:53:00,sdl,19.59
2021-12-23T05:54:00,sdl,19.63
2021-12-23T05:55:00,sdl,18.30
2021-12-23T05:56:00,sdl,14.19
2021-12-23T05:57:00,sdl,14.15
2021-12-23T05:58:00,sdl,14.19
2021-12-23T05:59:00,sdl,14.83
2021-12-23T06:00:00,sdl,14.20
2021-12-23T06:01:00,sdl,14.80
2021-12-23T06:02:00,sdl,14.46
2021-12-23T06:03:00,sdl,14.47
2021-12-23T06:04:00,sdl,15.84
2021-12-23T06:05:00,sdl,16.27
2021-12-23T06:06:00,sdl,14.30
2021-12-23T06:07:00,sdl,15.44
2021-12-23T06:08:00,sdl,12.48
2021-12-23T06:09:00,sdl,12.52
2021-12-23T06:10:00,sdl,12.13
2021-12-23T06:11:00,sdl,12.11
2021-12-23T06:12:00,sdl,12.15
2021-12-23T06:13:00,sdl,12.18
2021-12-23T06:14:00,sdl,13.63
2021-12-23T06:15:00,sdl,14.53
2021-12-23T06:16:00,sdl,13.10
2021-12-23T06:17:00,sdl,13.06
2021-12-23T06:18:00,sdl,13.01
2021-12-23T06:19:00,sdl,12.95
2021-12-23T06:20:00,sdl,12.98
2021-12-23T06:21:00,sdl,13.03
2021-12-23T06:22:00,sdl,12.95
2021-12-23T06:23:00,sdl,13.33
2021-12-23T06:24:00,sdl,13.36
2021-12-23T06:25:00,sdl,14.65
2021-12-23T06:26:00,sdl,14.84
2021-12-23T06:27:00,sdl,13.46
2021-12-23T06:28:00,sdl,15.80
2021-12-23T06:29:00,sdl,16.09
2021-12-23T06:30:00,sdl,15.80
2021-12-23T06:31:00,sdl,15.76
2021-12-23T06:32:00,sdl,15.66
2021-12-23T06:33:00,sdl,15.60
2021-12-23T06:34:00,sdl,18.67
2021-12-23T06:35:00,sdl,20.01
2021-12-23T06:36:00,sdl,17.64
2021-12-23T06:37:00,sdl,17.04
2021-12-23T06:38:00,sdl,17.05
2021-12-23T06:39:00,sdl,16.73
2021-12-23T06:40:00,sdl,17.22
2021-12-23T06:41:00,sdl,16.85
2021-12-23T06:42:00,sdl,16.84
2021-12-23T06:43:00,sdl,16.79
2021-12-23T06:44:00,sdl,16.71
2021-12-23T06:45:00,sdl,13.87
2021-12-23T06:46:00,sdl,13.82
2021-12-23T06:47:00,sdl,13.77
2021-12-23T06:48:00,sdl,12.44
2021-12-23T06:49:00,sdl,14.64
2021-12-23T06:50:00,sdl,14.95
2021-12-23T06:51:00,sdl,14.83
2021-12-23T06:52:00,sdl,14.92
2021-12-23T06:53:00,sdl,14.96
2021-12-23T06:54:00,sdl,14.93
2021-12-23T06:55:00,sdl,14.98
2021-12-23T06:56:00,sdl,16.31
2021-12-23T06:57:00,sdl,16.43
2021-12-23T06:58:00,sdl,14.96
2021-12-23T06:59:00,sdl,15.04
2021-12-23T07:00:00,sdl,15.00
2021-12-23T07:01:00,sdl,15.08
2021-12-23T07:02:00,sdl,14.98
2021-12-23T07:03:00,sdl,16.01
2021-12-23T07:04:00,sdl,16.00
2021-12-23T07:05:00,sdl,16.08
2021-12-23T07:06:00,sdl,17.55
2021-12-23T07:07:00,sdl,14.95
2021-12-23T07:08:00,sdl,13.64
2021-12-23T07:09:00,sdl,13.66
2021-12-23T07:10:00,sdl,14.07
2021-12-23T07:11:00,sdl,13.96
2021-12-23T07:12:00,sdl,13.52
2021-12-23T07:13:00,sdl,13.40
2021-12-23T07:14:00,sdl,13.33
2021-12-23T07:15:00,sdl,13.39
2021-12-23T07:16:00,sdl,14.77
2021-12-23T07:17:00,sdl,13.69
2021-12-23T07:18:00,sdl,13.32
2021-12-23T07:19:00,sdl,13.28
2021-12-23T07:20:00,sdl,13.28
2021-12-23T07:21:00,sdl,13.88
2021-12-23T07:22:00,sdl,13.36
2021-12-23T07:23:00,sdl,13.29
2021-12-23T07:24:00,sdl,12.26
2021-12-23T07:25:00,sdl,17.75
2021-12-23T07:26:00,sdl,17.74
2021-12-23T07:27:00,sdl,17.73
2021-12-23T07:28:00,sdl,17.71
2021-12-23T07:29:00,sdl,17.70
2021-12-23T07:30:00,sdl,20.02
2021-12-23T07:31:00,sdl,20.14
2021-12-23T07:32:00,sdl,21.31
2021-12-23T07:33:00,sdl,21.18
2021-12-23T07:34:00,sdl,21.55
2021-12-23T07:35:00,sdl,21.60
2021-12-23T07:36:00,sdl,17.02
2021-12-23T07:37:00,sdl,15.84
2021-12-23T07:38:00,sdl,15.79
2021-12-23T07:39:00,sdl,17.19
2021-12-23T07:40:00,sdl,17.20
2021-12-23T07:41:00,sdl,16.38
2021-12-23T07:42:00,sdl,16.35
2021-12-23T07:43:00,sdl,16.81
2021-12-23T07:44:00,sdl,17.24
2021-12-23T07:45:00,sdl,15.02
2021-12-23T07:46:00,sdl,15.22
2021-12-23T07:47:00,sdl,15.15
2021-12-23T07:48:00,sdl,15.20
2021-12-23T07:49:00,sdl,15.10
2021-12-23T07:50:00,sdl,15.10
2021-12-23T07:51:00,sdl,15.14
2021-12-23T07:52:00,sdl,15.09
2021-12-23T07:53:00,sdl,15.02
2021-12-23T07:54:00,sdl,15.00
2021-12-23T07:55:00,sdl,15.56
2021-12-23T07:56:00,sdl,16.12
2021-12-23T07:57:00,sdl,15.48
2021-12-23T07:58:00,sdl,15.46
2021-12-23T07:59:00,sdl,15.46
2021-12-23T08:00:00,sdl,15.47
2021-12-23T08:01:00,sdl,17.68
2021-12-23T08:02:00,sdl,17.97
2021-12-23T08:03:00,sdl,19.16
2021-12-23T08:04:00,sdl,17.64
2021-12-23T08:05:00,sdl,17.97
2021-12-23T08:06:00,sdl,18.21
2021-12-23T08:07:00,sdl,17.60
2021-12-23T08:08:00,sdl,17.62
2021-12-23T08:09:00,sdl,17.70
2021-12-23T08:10:00,sdl,17.67
2021-12-23T08:11:00,sdl,15.48
2021-12-23T08:12:00,sdl,15.50
2021-12-23T08:13:00,sdl,19.59
2021-12-23T08:14:00,sdl,19.59
2021-12-23T08:15:00,sdl,19.25
2021-12-23T08:16:00,sdl,18.81
2021-12-23T08:17:00,sdl,18.73
2021-12-23T08:18:00,sdl,18.76
2021-12-23T08:19:00,sdl,18.79
2021-12-23T08:20:00,sdl,18.71
2021-12-23T08:21:00,sdl,18.76
2021-12-23T08:22:00,sdl,18.82
2021-12-23T08:23:00,sdl,19.48
2021-12-23T08:24:00,sdl,18.57
2021-12-23T08:25:00,sdl,16.72
2021-12-23T08:26:00,sdl,16.72
2021-12-23T08:27:00,sdl,16.81
2021-12-23T08:28:00,sdl,16.89
2021-12-23T08:29:00,sdl,17.75
2021-12-23T08:30:00,sdl,17.51
2021-12-23T08:31:00,sdl,17.41
2021-12-23T08:32:00,sdl,16.72
2021-12-23T08:33:00,sdl,15.68
2021-12-23T08:34:00,sdl,15.63
2021-12-23T08:35:00,sdl,15.68
2021-12-23T08:36:00,sdl,15.89
2021-12-23T08:37:00,sdl,15.91
2021-12-23T08:38:00,sdl,15.89
2021-12-23T08:39:00,sdl,16.48
2021-12-23T08:40:00,sdl,15.81
2021-12-23T08:41:00,sdl,15.88
2021-12-23T08:42:00,sdl,13.66
2021-12-23T08:43:00,sdl,13.57
2021-12-23T08:44:00,sdl,13.67
2021-12-23T08:45:00,sdl,14.63
2021-12-23T08:46:00,sdl,14.62
2021-12-23T08:47:00,sdl,14.61
2021-12-23T08:48:00,sdl,14.60
2021-12-23T08:49:00,sdl,14.60
2021-12-23T08:50:00,sdl,14.66
2021-12-23T08:51:00,sdl,14.60
2021-12-23T08:52:00,sdl,14.63
2021-12-23T08:53:00,sdl,14.55
2021-12-23T08:54:00,sdl,14.58
2021-12-23T08:55:00,sdl,14.61
2021-12-23T08:56:00,sdl,14.65
2021-12-23T08:57:00,sdl,15.22
2021-12-23T08:58:00,sdl,15.06
2021-12-23T08:59:00,sdl,15.72
2021-12-23T09:00:00,sdl,16.27
2021-12-23T09:01:00,sdl,15.78
2021-12-23T09:02:00,sdl,15.79
2021-12-23T09:03:00,sdl,21.62
2021-12-23T09:04:00,sdl,20.30
2021-12-23T09:05:00,sdl,21.99
2021-12-23T09:06:00,sdl,21.73
2021-12-23T09:07:00,sdl,22.12
2021-12-23T09:08:00,sdl,22.55
2021-12-23T09:09:00,sdl,22.61
2021-12-23T09:10:00,sdl,22.58
2021-12-23T09:11:00,sdl,22.80
2021-12-23T09:12:00,sdl,22.79
2021-12-23T09:13:00,sdl,22.16
2021-12-23T09:14:00,sdl,18.49
2021-12-23T09:15:00,sdl,18.61
2021-12-23T09:16:00,sdl,17.93
2021-12-23T09:17:00,sdl,18.97
2021-12-23T09:18:00,sdl,17.16
2021-12-23T09:19:00,sdl,14.89
2021-12-23T09:20:00,sdl,14.81
2021-12-23T09:21:00,sdl,16.13
2021-12-23T09:22:00,sdl,16.54
2021-12-23T09:23:00,sdl,14.80
2021-12-23T09:24:00,sdl,14.81
2021-12-23T09:25:00,sdl,14.78
2021-12-23T09:26:00,sdl,15.43
2021-12-23T09:27:00,sdl,14.75
2021-12-23T09:28:00,sdl,15.83
2021-12-23T09:29:00,sdl,15.05
2021-12-23T09:30:00,sdl,15.06
2021-12-23T09:31:00,sdl,16.96
2021-12-23T09:32:00,sdl,16.88
2021-12-23T09:33:00,sdl,16.93
2021-12-23T09:34:00,sdl,16.88
2021-12-23T09:35:00,sdl,16.83
2021-12-23T09:36:00,sdl,16.97
2021-12-23T09:37:00,sdl,17.04
2021-12-23T09:38:00,sdl,16.93
2021-12-23T09:39:00,sdl,16.93
2021-12-23T09:40:00,sdl,16.93
2021-12-23T09:41:00,sdl,16.94
2021-12-23T09:42:00,sdl,15.38
2021-12-23T09:43:00,sdl,14.76
2021-12-23T09:44:00,sdl,13.91
2021-12-23T09:45:00,sdl,12.97
2021-12-23T09:46:00,sdl,12.94
2021-12-23T09:47:00,sdl,12.92
2021-12-23T09:48:00,sdl,13.02
2021-12-23T09:49:00,sdl,13.09
2021-12-23T09:50:00,sdl,13.21
2021-12-23T09:51:00,sdl,19.00
2021-12-23T09:52:00,sdl,17.28
2021-12-23T09:53:00,sdl,17.41
2021-12-23T09:54:00,sdl,17.23
2021-12-23T09:55:00,sdl,17.17
2021-12-23T09:56:00,sdl,17.15
2021-12-23T09:57:00,sdl,17.24
2021-12-23T09:58:00,sdl,17.49
2021-12-23T09:59:00,sdl,19.74
2021-12-23T10:00:00,sdl,19.30
2021-12-23T10:01:00,sdl,19.38
2021-12-23T10:02:00,sdl,15.27
2021-12-23T10:03:00,sdl,15.27
2021-12-23T10:04:00,sdl,15.22
2021-12-23T10:05:00,sdl,15.35
2021-12-23T10:06:00,sdl,15.35
2021-12-23T10:07:00,sdl,15.43
2021-12-23T10:08:00,sdl,15.27
2021-12-23T10:09:00,sdl,15.58
2021-12-23T10:10:00,sdl,15.58
2021-12-23T10:11:00,sdl,15.53
2021-12-23T10:12:00,sdl,15.45
2021-12-23T10:13:00,sdl,15.44
2021-12-23T10:14:00,sdl,15.58
2021-12-23T10:15:00,sdl,15.61
2021-12-23T10:16:00,sdl,16.68
2021-12-23T10:17:00,sdl,17.27
2021-12-23T10:18:00,sdl,14.46
2021-12-23T10:19:00,sdl,14.45
2021-12-23T10:20:00,sdl,13.43
2021-12-23T10:21:00,sdl,13.37
2021-12-23T10:22:00,sdl,13.95
2021-12-23T10:23:00,sdl,13.31
2021-12-23T10:24:00,sdl,14.93
2021-12-23T10:25:00,sdl,14.70
2021-12-23T10:26:00,sdl,14.70
2021-12-23T10:27:00,sdl,15.11
2021-12-23T10:28:00,sdl,15.27
2021-12-23T10:29:00,sdl,14.94
2021-12-23T10:30:00,sdl,14.84
2021-12-23T10:31:00,sdl,14.93
2021-12-23T10:32:00,sdl,14.96
2021-12-23T10:33:00,sdl,14.94
2021-12-23T10:34:00,sdl,14.79
2021-12-23T10:35:00,sdl,14.72
2021-12-23T10:36:00,sdl,18.72
2021-12-23T10:37:00,sdl,18.29
2021-12-23T10:38:00,sdl,18.38
2021-12-23T10:39:00,sdl,19.05
2021-12-23T10:40:00,sdl,18.42
2021-12-23T10:41:00,sdl,20.60
2021-12-23T10:42:00,sdl,20.66
2021-12-23T10:43:00,sdl,20.73
2021-12-23T10:44:00,sdl,20.61
2021-12-23T10:45:00,sdl,20.59
2021-12-23T10:46:00,sdl,20.66
2021-12-23T10:47:00,sdl,16.50
2021-12-23T10:48:00,sdl,16.47
2021-12-23T10:49:00,sdl,17.25
2021-12-23T10:50:00,sdl,17.21
2021-12-23T10:51:00,sdl,17.34
2021-12-23T10:52:00,sdl,17.35
2021-12-23T10:53:00,sdl,17.29
2021-12-23T10:54:00,sdl,17.26
2021-12-23T10:55:00,sdl,16.36
2021-12-23T10:56:00,sdl,16.48
2021-12-23T10:57:00,sdl,16.54
2021-12-23T10:58:00,sdl,14.21
2021-12-23T10:59:00,sdl,14.73
2021-12-23T11:00:00,sdl,14.16
2021-12-23T11:01:00,sdl,15.25
2021-12-23T11:02:00,sdl,14.44
2021-12-23T11:03:00,sdl,14.59
2021-12-23T11:04:00,sdl,15.39
2021-12-23T11:05:00,sdl,15.39
2021-12-23T11:06:00,sdl,15.39
2021-12-23T11:07:00,sdl,15.42
2021-12-23T11:08:00,sdl,15.52
2021-12-23T11:09:00,sdl,15.65
2021-12-23T11:10:00,sdl,15.64
2021-12-23T11:11:00,sdl,15.20
2021-12-23T11:12:00,sdl,16.79
2021-12-23T11:13:00,sdl,15.89
2021-12-23T11:14:00,sdl,15.50
2021-12-23T11:15:00,sdl,15.34
2021-12-23T11:16:00,sdl,15.85
2021-12-23T11:17:00,sdl,18.20
2021-12-23T11:18:00,sdl,17.89
2021-12-23T11:19:00,sdl,17.45
2021-12-23T11:20:00,sdl,17.55
2021-12-23T11:21:00,sdl,18.71
2021-12-23T11:22:00,sdl,22.45
2021-12-23T11:23:00,sdl,21.95
2021-12-23T11:24:00,sdl,23.17
2021-12-23T11:25:00,sdl,23.44
2021-12-23T11:26:00,sdl,23.38
2021-12-23T11:27:00,sdl,23.25
2021-12-23T11:28:00,sdl,23.29
2021-12-23T11:29:00,sdl,23.88
2021-12-23T11:30:00,sdl,22.47
2021-12-23T11:31:00,sdl,19.73
2021-12-23T11:32:00,sdl,20.94
2021-12-23T11:33:00,sdl,16.90
2021-12-23T11:34:00,sdl,16.84
2021-12-23T11:35:00,sdl,17.46
2021-12-23T11:36:00,sdl,15.71
2021-12-23T11:37:00,sdl,16.20
2021-12-23T11:38:00,sdl,15.71
2021-12-23T11:39:00,sdl,16.92
2021-12-23T11:40:00,sdl,17.00
2021-12-23T11:41:00,sdl,17.00
2021-12-23T11:42:00,sdl,16.19
2021-12-23T11:43:00,sdl,17.41
2021-12-23T11:44:00,sdl,18.45
2021-12-23T11:45:00,sdl,18.66
2021-12-23T11:46:00,sdl,18.04
2021-12-23T11:47:00,sdl,18.62
2021-12-23T11:48:00,sdl,17.87
2021-12-23T11:49:00,sdl,17.36
2021-12-23T11:50:00,sdl,16.16
2021-12-23T11:51:00,sdl,16.19
2021-12-23T11:52:00,sdl,17.49
2021-12-23T11:53:00,sdl,17.70
2021-12-23T11:54:00,sdl,17.54
2021-12-23T11:55:00,sdl,15.37
2021-12-23T11:56:00,sdl,15.05
2021-12-23T11:57:00,sdl,15.05
2021-12-23T11:58:00,sdl,15.04
2021-12-23T11:59:00,sdl,15.39
2021-12-23T12:00:00,sdl,15.74
2021-12-23T12:01:00,sdl,15.62
2021-12-23T12:02:00,sdl,15.59
2021-12-23T12:03:00,sdl,15.85
2021-12-23T12:04:00,sdl,15.76
2021-12-23T12:05:00,sdl,15.71
2021-12-23T12:06:00,sdl,17.26
2021-12-23T12:07:00,sdl,15.45
2021-12-23T12:08:00,sdl,19.60
2021-12-23T12:09:00,sdl,19.72
2021-12-23T12:10:00,sdl,19.60
2021-12-23T12:11:00,sdl,19.65
2021-12-23T12:12:00,sdl,19.64
2021-12-23T12:13:00,sdl,21.85
2021-12-23T12:14:00,sdl,22.43
2021-12-23T12:15:00,sdl,22.31
2021-12-23T12:16:00,sdl,22.92
2021-12-23T12:17:00,sdl,22.33
2021-12-23T12:18:00,sdl,22.23
2021-12-23T12:19:00,sdl,22.23
2021-12-23T12:20:00,sdl,17.72
2021-12-23T12:21:00,sdl,17.71
2021-12-23T12:22:00,sdl,17.64
2021-12-23T12:23:00,sdl,16.01
2021-12-23T12:24:00,sdl,16.01
2021-12-23T12:25:00,sdl,16.07
2021-12-23T12:26:00,sdl,16.31
2021-12-23T12:27:00,sdl,17.52
2021-12-23T12:28:00,sdl,17.52
2021-12-23T12:29:00,sdl,17.36
2021-12-23T12:30:00,sdl,15.07
2021-12-23T12:31:00,sdl,14.93
2021-12-23T12:32:00,sdl,14.92
2021-12-23T12:33:00,sdl,14.93
2021-12-23T12:34:00,sdl,14.92
2021-12-23T12:35:00,sdl,14.88
2021-12-23T12:36:00,sdl,14.69
2021-12-23T12:37:00,sdl,14.49
2021-12-23T12:38:00,sdl,14.54
2021-12-23T12:39:00,sdl,14.68
2021-12-23T12:40:00,sdl,14.70
2021-12-23T12:41:00,sdl,14.64
2021-12-23T12:42:00,sdl,14.63
2021-12-23T12:43:00,sdl,14.68
2021-12-23T12:44:00,sdl,14.58
2021-12-23T12:45:00,sdl,14.61
2021-12-23T12:46:00,sdl,13.13
2021-12-23T12:47:00,sdl,13.08
2021-12-23T12:48:00,sdl,13.11
2021-12-23T12:49:00,sdl,13.32
2021-12-23T12:50:00,sdl,13.86
2021-12-23T12:51:00,sdl,13.28
2021-12-23T12:52:00,sdl,13.36
2021-12-23T12:53:00,sdl,13.71
2021-12-23T12:54:00,sdl,13.68
2021-12-23T12:55:00,sdl,15.99
2021-12-23T12:56:00,sdl,20.16
2021-12-23T12:57:00,sdl,19.54
2021-12-23T12:58:00,sdl,19.54
2021-12-23T12:59:00,sdl,19.19
2021-12-23T13:00:00,sdl,19.20
2021-12-23T13:01:00,sdl,20.08
2021-12-23T13:02:00,sdl,20.09
2021-12-23T13:03:00,sdl,19.04
2021-12-23T13:04:00,sdl,19.45
2021-12-23T13:05:00,sdl,19.73
2021-12-23T13:06:00,sdl,19.15
2021-12-23T13:07:00,sdl,19.05
2021-12-23T13:08:00,sdl,19.04
2021-12-23T13:09:00,sdl,16.81
2021-12-23T13:10:00,sdl,13.52
2021-12-23T13:11:00,sdl,12.85
2021-12-23T13:12:00,sdl,12.83
2021-12-23T13:13:00,sdl,13.99
2021-12-23T13:14:00,sdl,13.65
2021-12-23T13:15:00,sdl,13.62
2021-12-23T13:16:00,sdl,12.68
2021-12-23T13:17:00,sdl,12.60
2021-12-23T13:18:00,sdl,12.72